DW6193 Weather Reports


Display with metric or nautical units.
time (UTC)temp
F
wind
direction
speed
MPH
gust
MPH
rain 1hr
in
rain 24hr
in
rain mn
in
humidity
%
barometer
mb
20260510093036 58 274 3.0 7.0 0.00 0.00 0.00 1017.3
20260510092525 58 281 2.0 5.0 0.00 0.00 0.00 1017.3
20260510092027 58 268 0.0 5.0 0.00 0.00 0.00 1017.2
20260510091536 57 278 2.0 5.0 0.00 0.00 0.00 1017.1
20260510091025 58 210 1.0 5.0 0.00 0.00 0.00 1017.0
20260510090523 58 311 2.0 5.0 0.00 0.00 0.00 1017.0
20260510090040 57 230 3.0 5.0 0.00 0.00 0.00 1017.0
20260510085523 58 236 2.0 5.0 0.00 0.00 0.00 1017.0
20260510085026 58 252 2.0 5.0 0.00 0.00 0.00 1017.0
20260510084549 59 236 1.0 4.0 0.00 0.00 0.00 1017.0
20260510084023 59 268 1.0 4.0 0.00 0.00 0.00 1016.9
20260510083527 59 277 0.0 3.0 0.00 0.00 0.00 1017.0
20260510083041 59 227 1.0 5.0 0.00 0.00 0.00 1017.0
20260510082524 59 259 2.0 5.0 0.00 0.00 0.00 1017.1
20260510082024 59 261 2.0 4.0 0.00 0.00 0.00 1017.1
20260510081537 60 238 1.0 4.0 0.00 0.00 0.00 1017.1
20260510081024 61 252 0.0 2.0 0.00 0.00 0.00 1017.0
20260510080524 61 0 0.0 2.0 0.00 0.00 0.00 1017.0
20260510080036 62 0 0.0 2.0 0.00 0.00 0.00 1017.1
20260510075532 62 0 0.0 3.0 0.00 0.00 0.00 1017.1
20260510075028 62 141 1.0 4.0 0.00 0.00 0.00 1017.2
20260510074537 63 109 1.0 4.0 0.00 0.00 0.00 1017.0
20260510074028 63 116 2.0 4.0 0.00 0.00 0.00 1017.1
20260510073528 63 0 1.0 5.0 0.00 0.00 0.00 1017.0
20260510073047 63 273 2.0 9.0 0.00 0.00 0.00 1017.0
20260510072528 64 290 2.0 10.0 0.00 0.00 0.00 1016.9
20260510072029 64 286 5.0 10.0 0.00 0.00 0.00 1017.0
20260510071548 64 280 5.0 9.0 0.00 0.00 0.00 1016.9
20260510071028 64 272 5.0 10.0 0.00 0.00 0.00 1016.9
20260510070529 64 273 5.0 10.0 0.00 0.00 0.00 1016.9
20260510070042 64 272 5.0 10.0 0.00 0.00 0.00 1017.0
20260510065529 65 251 5.0 10.0 0.00 0.00 0.00 1017.0
20260510065026 65 259 4.0 8.0 0.00 0.00 0.00 1017.0
20260510064545 65 248 4.0 7.0 0.00 0.00 0.00 1016.9
20260510064028 65 268 4.0 8.0 0.00 0.00 0.00 1016.8
20260510063528 65 273 4.0 8.0 0.00 0.00 0.00 1017.0
20260510063038 65 277 3.0 8.0 0.00 0.00 0.00 1017.0
20260510062528 65 278 3.0 7.0 0.00 0.00 0.00 1017.2
20260510062028 65 261 4.0 7.0 0.00 0.00 0.00 1016.9
20260510061538 65 284 4.0 6.0 0.00 0.00 0.00 1016.9
20260510061028 65 277 4.0 7.0 0.00 0.00 0.00 1017.0
20260510060525 66 288 5.0 7.0 0.00 0.00 0.00 1016.9
20260510060046 65 283 4.0 7.0 0.00 0.00 0.00 1017.1
20260510055528 65 282 5.0 7.0 0.00 0.00 0.00 1016.9
20260510055029 64 268 4.0 7.0 0.00 0.00 0.00 1016.8
20260510054537 64 223 1.0 5.0 0.00 0.00 0.00 1016.8
20260510054029 65 55 1.0 9.0 0.00 0.00 0.00 1016.9
20260510053529 66 307 1.0 9.0 0.00 0.00 0.00 1016.9
20260510053041 66 268 4.0 10.0 0.00 0.00 0.00 1017.0
20260510052529 66 286 2.0 10.0 0.00 0.00 0.00 1017.0
20260510052028 66 293 3.0 11.0 0.00 0.00 0.00 1017.0
20260510051542 66 299 2.0 11.0 0.00 0.00 0.00 1017.0
20260510051029 66 246 2.0 10.0 0.00 0.00 0.00 1017.0
20260510050528 67 288 2.0 9.0 0.00 0.00 0.00 1016.8
20260510050040 67 28 2.0 8.0 0.00 0.00 0.00 1016.8
20260510045541 67 280 2.0 7.0 0.00 0.00 0.00 1016.8
20260510045026 67 276 3.0 7.0 0.00 0.00 0.00 1016.7
20260510044540 67 295 2.0 7.0 0.00 0.00 0.00 1016.6
20260510044026 67 99 2.0 8.0 0.00 0.00 0.00 1016.4
20260510043526 67 183 2.0 8.0 0.00 0.00 0.00 1016.5
20260510043044 68 311 2.0 10.0 0.00 0.00 0.00 1016.5
20260510042524 68 268 4.0 11.0 0.00 0.00 0.00 1016.3
20260510042026 68 295 2.0 11.0 0.00 0.00 0.00 1016.3
20260510041549 68 243 1.0 10.0 0.00 0.00 0.00 1016.3
20260510041025 68 297 2.0 10.0 0.00 0.00 0.00 1016.2
20260510040527 68 298 4.0 10.0 0.00 0.00 0.00 1016.2
20260510040036 69 309 4.0 9.0 0.00 0.00 0.00 1016.2
20260510035528 69 302 3.0 9.0 0.00 0.00 0.00 1016.1
20260510035026 69 299 3.0 10.0 0.00 0.00 0.00 1016.1
20260510034540 70 297 4.0 10.0 0.00 0.00 0.00 1016.0
20260510034027 70 297 3.0 9.0 0.00 0.00 0.00 1016.1
20260510033524 70 285 5.0 9.0 0.00 0.00 0.00 1016.0
20260510033037 70 280 2.0 7.0 0.00 0.00 0.00 1016.0
20260510032523 70 286 1.0 9.0 0.00 0.00 0.00 1016.1
20260510032023 70 243 1.0 9.0 0.00 0.00 0.00 1016.0
20260510031537 71 0 2.0 9.0 0.00 0.00 0.00 1015.9
20260510031024 71 285 2.0 6.0 0.00 0.00 0.00 1015.9
20260510030527 72 277 2.0 5.0 0.00 0.00 0.00 1015.9
20260510030037 72 311 1.0 7.0 0.00 0.00 0.00 1015.9
20260510025523 72 39 1.0 7.0 0.00 0.00 0.00 1015.8
20260510025026 72 201 2.0 7.0 0.00 0.00 0.00 1015.8
20260510024547 73 0 1.0 6.0 0.00 0.00 0.00 1015.8
20260510024026 73 165 1.0 6.0 0.00 0.00 0.00 1015.9
20260510023523 73 0 1.0 6.0 0.00 0.00 0.00 1015.9
20260510023037 73 283 1.0 3.0 0.00 0.00 0.00 1015.9
20260510022526 74 269 1.0 4.0 0.00 0.00 0.00 1015.9
20260510022023 74 158 0.0 4.0 0.00 0.00 0.00 1016.0
20260510021537 74 268 2.0 4.0 0.00 0.00 0.00 1015.9
20260510021025 75 183 0.0 9.0 0.00 0.00 0.00 1015.9
20260510020527 74 295 2.0 9.0 0.00 0.00 0.00 1015.9
20260510020038 74 302 2.0 7.0 0.00 0.00 0.00 1015.9
20260510015523 75 141 2.0 7.0 0.00 0.00 0.00 1016.0
20260510015023 75 305 1.0 5.0 0.00 0.00 0.00 1015.9
20260510014543 76 286 1.0 7.0 0.00 0.00 0.00 1016.0
20260510014028 76 106 1.0 7.0 0.00 0.00 0.00 1016.1
20260510013528 76 280 1.0 7.0 0.00 0.00 0.00 1016.1
20260510013046 76 99 2.0 7.0 0.00 0.00 0.00 1016.3
20260510012529 77 322 1.0 7.0 0.00 0.00 0.00 1016.3
20260510012030 77 141 1.0 6.0 0.00 0.00 0.00 1016.2
20260510011539 77 18 1.0 8.0 0.00 0.00 0.00 1016.1
20260510011028 77 272 2.0 8.0 0.00 0.00 0.00 1016.3
20260510010528 78 292 2.0 6.0 0.00 0.00 0.00 1016.3
20260510010055 79 51 2.0 11.0 0.00 0.00 0.00 1016.4
20260510005527 81 327 3.0 11.0 0.00 0.00 0.00 1016.6
20260510005029 82 286 2.0 10.0 0.00 0.00 0.00 1016.5
20260510004546 81 281 2.0 6.0 0.00 0.00 0.00 1016.4
20260510004028 78 141 2.0 5.0 0.00 0.00 0.00 1016.4
20260510003529 80 311 1.0 7.0 0.00 0.00 0.00 1016.5
20260510003038 83 305 2.0 7.0 0.00 0.00 0.00 1016.6
20260510002528 86 295 1.0 8.0 0.00 0.00 0.00 1016.6
20260510002028 85 46 2.0 8.0 0.00 0.00 0.00 1016.6
20260510001538 86 286 2.0 8.0 0.00 0.00 0.00 1016.7
20260510001029 85 268 2.0 8.0 0.00 0.00 0.00 1016.5
20260510000528 87 39 1.0 5.0 0.00 0.00 0.00 1016.6
20260510000041 89 12 1.0 6.0 0.00 0.00 0.00 1016.6
20260509235528 89 248 1.0 8.0 0.00 0.00 0.00 1016.6
20260509235028 89 116 2.0 8.0 0.00 0.00 0.00 1016.8
20260509234559 89 39 1.0 6.0 0.00 0.00 0.00 1016.8
20260509234027 88 9 1.0 6.0 0.00 0.00 0.00 1016.8
20260509233528 88 183 2.0 6.0 0.00 0.00 0.00 1016.8
20260509233040 88 0 1.0 6.0 0.00 0.00 0.00 1016.8
20260509232531 85 0 1.0 5.0 0.00 0.00 0.00 1016.9
20260509232030 86 0 1.0 6.0 0.00 0.00 0.00 1017.0
20260509231537 82 283 2.0 7.0 0.00 0.00 0.00 1017.1
20260509231029 84 281 2.0 7.0 0.00 0.00 0.00 1017.1
20260509230532 86 286 2.0 6.0 0.00 0.00 0.00 1017.3
20260509230037 88 232 2.0 6.0 0.00 0.00 0.00 1017.4
20260509225529 87 158 1.0 6.0 0.00 0.00 0.00 1017.5
20260509225031 85 0 2.0 6.0 0.00 0.00 0.00 1017.6
20260509224543 88 280 1.0 8.0 0.00 0.00 0.00 1017.7
20260509224028 85 263 2.0 8.0 0.00 0.00 0.00 1017.8
20260509223527 86 59 2.0 7.0 0.00 0.00 0.00 1017.8
20260509223036 84 141 3.0 7.0 0.00 0.00 0.00 1017.8
20260509222527 85 99 2.0 9.0 0.00 0.00 0.00 1017.9
20260509222035 84 0 2.0 9.0 0.00 0.00 0.00 1017.8
20260509221600 85 316 2.0 7.0 0.00 0.00 0.00 1018.0
20260509221029 85 230 2.0 9.0 0.00 0.00 0.00 1018.0
20260509220527 84 329 2.0 9.0 0.00 0.00 0.00 1018.1
20260509220037 84 261 3.0 10.0 0.00 0.00 0.00 1018.1
20260509215528 84 261 2.0 10.0 0.00 0.00 0.00 1018.2
20260509215028 84 0 2.0 8.0 0.00 0.00 0.00 1018.3
20260509214539 85 39 2.0 7.0 0.00 0.00 0.00 1018.4
20260509214026 84 286 2.0 6.0 0.00 0.00 0.00 1018.3
20260509213528 84 9 1.0 6.0 0.00 0.00 0.00 1018.4
20260509213042 83 39 2.0 6.0 0.00 0.00 0.00 1018.4
20260509212532 84 112 1.0 6.0 0.00 0.00 0.00 1018.4
20260509212027 84 116 1.0 6.0 0.00 0.00 0.00 1018.5
20260509211537 83 227 1.0 6.0 0.00 0.00 0.00 1018.5
20260509211028 83 49 1.0 6.0 0.00 0.00 0.00 1018.4
20260509210529 83 33 1.0 6.0 0.00 0.00 0.00 1018.5
20260509210054 82 243 1.0 6.0 0.00 0.00 0.00 1018.6
20260509205527 82 128 2.0 6.0 0.00 0.00 0.00 1018.6
20260509205027 82 99 1.0 4.0 0.00 0.00 0.00 1018.7
20260509204542 79 28 1.0 4.0 0.00 0.00 0.00 1018.7
20260509204026 77 268 1.0 5.0 0.00 0.00 0.00 1018.7
20260509203528 77 12 1.0 7.0 0.00 0.00 0.00 1018.8
20260509203045 77 0 0.0 7.0 0.00 0.00 0.00 1018.8
20260509202528 76 286 2.0 7.0 0.00 0.00 0.00 1019.1
20260509202030 79 158 1.0 5.0 0.00 0.00 0.00 1019.0
20260509201541 79 183 1.0 4.0 0.00 0.00 0.00 1019.1
20260509201032 78 302 1.0 4.0 0.00 0.00 0.00 1019.2
20260509200532 78 116 1.0 6.0 0.00 0.00 0.00 1019.1
20260509200042 76 295 1.0 9.0 0.00 0.00 0.00 1019.4
20260509195527 74 116 4.0 11.0 0.00 0.00 0.00 1019.3
20260509195026 78 124 1.0 11.0 0.00 0.00 0.00 1019.4
20260509194536 78 120 3.0 11.0 0.00 0.00 0.00 1019.5
20260509194028 79 280 0.0 5.0 0.00 0.00 0.00 1019.7
20260509193526 79 112 1.0 7.0 0.00 0.00 0.00 1019.5
20260509193044 80 39 1.0 7.0 0.00 0.00 0.00 1019.6
20260509192528 79 99 1.0 5.0 0.00 0.00 0.00 1019.8
20260509192038 79 243 0.0 8.0 0.00 0.00 0.00 1019.6
20260509191543 79 281 2.0 9.0 0.00 0.00 0.00 1020.0
20260509191032 79 99 3.0 9.0 0.00 0.00 0.00 1019.9
20260509190530 81 109 1.0 9.0 0.00 0.00 0.00 1019.9
20260509190047 79 22 2.0 9.0 0.00 0.00 0.00 1020.1
20260509185529 80 99 3.0 9.0 0.00 0.00 0.00 1020.1
20260509185028 81 99 1.0 8.0 0.00 0.00 0.00 1020.1
20260509184540 79 234 1.0 9.0 0.00 0.00 0.00 1020.3
20260509184026 79 311 4.0 9.0 0.00 0.00 0.00 1020.3
20260509183528 79 121 2.0 9.0 0.00 0.00 0.00 1020.2
20260509183041 79 39 2.0 9.0 0.00 0.00 0.00 1020.1
20260509182527 78 109 3.0 7.0 0.00 0.00 0.00 1020.3
20260509182026 78 76 1.0 5.0 0.00 0.00 0.00 1020.3
20260509181536 78 116 1.0 7.0 0.00 0.00 0.00 1020.4
20260509181030 79 105 2.0 7.0 0.00 0.00 0.00 1020.3
20260509180527 78 341 1.0 8.0 0.00 0.00 0.00 1020.4
20260509180043 77 108 2.0 9.0 0.00 0.00 0.00 1020.4
20260509175526 74 107 4.0 9.0 0.00 0.00 0.00 1020.5
20260509175028 74 64 4.0 9.0 0.00 0.00 0.00 1020.6
20260509174542 76 107 2.0 7.0 0.00 0.00 0.00 1020.7
20260509174027 76 124 1.0 5.0 0.00 0.00 0.00 1020.8
20260509173526 74 210 0.0 3.0 0.00 0.00 0.00 1021.0
20260509173051 74 0 0.0 2.0 0.00 0.00 0.00 1021.0
20260509172527 72 141 1.0 4.0 0.00 0.00 0.00 1021.0
20260509172026 75 252 0.0 4.0 0.00 0.00 0.00 1021.0
20260509171546 74 268 1.0 4.0 0.00 0.00 0.00 1021.0
20260509171026 74 268 1.0 4.0 0.00 0.00 0.00 1021.0
20260509170526 71 0 0.0 4.0 0.00 0.00 0.00 1021.2
20260509170045 72 325 1.0 5.0 0.00 0.00 0.00 1021.4
20260509165526 70 99 0.0 5.0 0.00 0.00 0.00 1021.4
20260509165027 67 106 1.0 4.0 0.00 0.00 0.00 1021.4
20260509164549 66 252 1.0 4.0 0.00 0.00 0.00 1021.4
20260509164033 68 0 0.0 4.0 0.00 0.00 0.00 1021.5
20260509163529 67 329 0.0 4.0 0.00 0.00 0.00 1021.5
20260509163049 69 183 1.0 4.0 0.00 0.00 0.00 1021.7
20260509162524 69 12 0.0 4.0 0.00 0.00 0.00 1021.5
20260509162024 69 0 1.0 3.0 0.00 0.00 0.00 1021.6
20260509161537 68 99 0.0 3.0 0.00 0.00 0.00 1021.6
20260509161023 68 64 0.0 5.0 0.00 0.00 0.00 1021.8
20260509160523 66 71 1.0 7.0 0.00 0.00 0.00 1021.7
20260509160037 65 49 2.0 7.0 0.00 0.00 0.00 1021.6
20260509155525 64 126 2.0 8.0 0.00 0.00 0.00 1021.6
20260509155028 61 109 2.0 8.0 0.00 0.00 0.00 1021.8
20260509154537 59 66 3.0 11.0 0.00 0.00 0.00 1021.9
20260509154026 58 99 2.0 11.0 0.00 0.00 0.00 1021.9
20260509153528 57 126 4.0 11.0 0.00 0.00 0.00 1022.0
20260509153038 57 124 4.0 8.0 0.00 0.00 0.00 1022.1
20260509152526 56 66 2.0 8.0 0.00 0.00 0.00 1022.2
20260509152026 56 105 2.0 8.0 0.00 0.00 0.00 1022.3
20260509151537 56 113 2.0 8.0 0.00 0.00 0.00 1022.2
20260509151026 56 114 2.0 8.0 0.00 0.00 0.00 1022.4
20260509150524 55 122 3.0 9.0 0.00 0.00 0.00 1022.3
20260509150040 55 101 4.0 9.0 0.00 0.00 0.00 1022.2
20260509145523 54 121 5.0 9.0 0.00 0.00 0.00 1022.4
20260509145025 54 68 4.0 9.0 0.00 0.00 0.00 1022.2
20260509144544 53 112 4.0 11.0 0.00 0.00 0.00 1022.2
20260509144026 53 116 5.0 12.0 0.00 0.00 0.00 1022.2
20260509143523 52 114 8.0 12.0 0.00 0.00 0.00 1022.2
20260509143037 52 135 6.0 15.0 0.00 0.00 0.00 1022.0
20260509142525 52 108 9.0 15.0 0.00 0.00 0.00 1022.1
20260509142027 52 114 9.0 12.0 0.00 0.00 0.00 1022.1
20260509141544 52 106 7.0 12.0 0.00 0.00 0.00 1022.1
20260509141027 52 111 8.0 10.0 0.00 0.00 0.00 1022.1
20260509140526 52 115 6.0 10.0 0.00 0.00 0.00 1022.2
20260509140042 51 110 8.0 10.0 0.00 0.00 0.00 1022.2
20260509135526 51 108 7.0 10.0 0.00 0.00 0.00 1022.0
20260509135024 51 108 5.0 9.0 0.00 0.00 0.00 1022.0
20260509134550 52 116 1.0 4.0 0.00 0.00 0.00 1022.1
20260509134031 51 116 1.0 3.0 0.00 0.00 0.00 1022.1
20260509133526 50 205 1.0 3.0 0.00 0.00 0.00 1022.0
20260509133038 50 173 1.0 3.0 0.00 0.00 0.00 1022.0
20260509132526 51 183 1.0 3.0 0.00 0.00 0.00 1021.9
20260509132023 51 141 1.0 4.0 0.00 0.00 0.00 1021.9
20260509131616 50 195 1.0 4.0 0.00 0.00 0.00 1022.0
20260509131026 50 116 3.0 4.0 0.00 0.00 0.00 1022.1
20260509130531 50 122 1.0 4.0 0.00 0.00 0.00 1022.0
20260509130048 49 109 1.0 5.0 0.00 0.00 0.00 1022.1
20260509125527 48 183 1.0 5.0 0.00 0.00 0.00 1022.1
20260509125026 49 278 2.0 5.0 0.00 0.00 0.00 1022.2
20260509124543 49 261 2.0 5.0 0.00 0.00 0.00 1022.2
20260509124026 48 255 3.0 5.0 0.00 0.00 0.00 1022.2
20260509123526 49 246 2.0 4.0 0.00 0.00 0.00 1022.3
20260509123048 49 234 2.0 4.0 0.00 0.00 0.00 1022.2
20260509122526 49 230 2.0 4.0 0.00 0.00 0.00 1022.1
20260509122024 49 234 2.0 3.0 0.00 0.00 0.00 1022.1
20260509121538 49 216 1.0 3.0 0.00 0.00 0.00 1022.0
20260509121026 49 222 1.0 3.0 0.00 0.00 0.00 1021.9
20260509120528 49 210 1.0 2.0 0.00 0.00 0.00 1022.1
20260509120039 49 219 1.0 4.0 0.00 0.00 0.00 1022.1
20260509115526 49 216 2.0 4.0 0.00 0.00 0.00 1022.1
20260509115022 50 243 1.0 3.0 0.00 0.00 0.00 1022.2
20260509114537 50 183 1.0 3.0 0.00 0.00 0.00 1022.2
20260509114026 50 183 1.0 6.0 0.00 0.00 0.00 1022.3
20260509113526 51 216 1.0 6.0 0.00 0.00 0.00 1022.2
20260509113036 51 261 4.0 7.0 0.00 0.00 0.00 1022.5
20260509112523 52 283 4.0 8.0 0.00 0.00 0.00 1022.4
20260509112027 52 283 4.0 8.0 0.00 0.00 0.00 1022.5
20260509111539 52 290 4.0 8.0 0.00 0.00 0.00 1022.5
20260509111026 51 286 3.0 6.0 0.00 0.00 0.00 1022.6
20260509110528 51 276 1.0 4.0 0.00 0.00 0.00 1022.5
20260509110042 51 259 1.0 5.0 0.00 0.00 0.00 1022.5
20260509105525 50 227 2.0 5.0 0.00 0.00 0.00 1022.6
20260509105029 51 247 1.0 4.0 0.00 0.00 0.00 1022.4
20260509104548 51 268 1.0 4.0 0.00 0.00 0.00 1022.6
20260509104025 51 232 1.0 5.0 0.00 0.00 0.00 1022.5
20260509103526 50 236 3.0 5.0 0.00 0.00 0.00 1022.5
20260509103037 50 250 3.0 5.0 0.00 0.00 0.00 1022.6
20260509102530 51 261 3.0 5.0 0.00 0.00 0.00 1022.6
20260509102027 51 247 3.0 5.0 0.00 0.00 0.00 1022.7
20260509101544 52 261 1.0 4.0 0.00 0.00 0.00 1022.7
20260509101026 52 0 1.0 4.0 0.00 0.00 0.00 1022.7
20260509100526 52 236 0.0 4.0 0.00 0.00 0.00 1022.7
20260509100040 52 355 1.0 4.0 0.00 0.00 0.00 1022.7
20260509095524 53 248 1.0 4.0 0.00 0.00 0.00 1022.7
20260509095026 53 295 2.0 5.0 0.00 0.00 0.00 1022.8
20260509094538 53 241 2.0 5.0 0.00 0.00 0.00 1022.8
20260509094026 52 250 2.0 5.0 0.00 0.00 0.00 1022.8
20260509093526 54 276 2.0 6.0 0.00 0.00 0.00 1022.8